Temperature
16 17 17 17 17 17 17 17 17 17 17 17 17 17 17 17 17 17 17 17 17 17 17 17 17 16 16 16 16 16 16 16 16 16 15 15 15 15 15 14 14 14 14
16 16 17 17 17 17 17 17 17 17 17 17 17 17 17 17 17 17 17 17 17 17 17 17 16 16 16 16 16 16 16 16 16 15 15 15 15 15 14 14 14 14 14
16 16 16 16 17 17 17 17 17 17 17 17 17 17 17 17 17 17 17 17 16 16 16 16 16 16 16 16 16 16 16 15 15 15 15 14 14 14 14 14 14 13 14
16 16 16 16 16 17 17 17 17 17 17 17 17 17 17 17 17 16 16 16 16 16 16 16 16 16 16 16 16 16 15 15 15 14 14 14 14 14 14 13 13 13 13
16 15 16 16 16 16 17 17 17 17 17 17 17 17 17 16 16 16 16 16 16 16 16 16 16 16 16 16 15 15 15 15 14 14 14 14 13 13 13 13 13 13 13
15 15 15 16 16 16 16 16 17 17 17 17 17 16 16 16 16 16 16 16 16 16 16 16 16 16 15 15 15 15 15 14 14 14 14 14 13 13 13 13 13 13 13
15 15 15 15 15 16 16 16 16 16 16 16 16 16 16 16 16 16 16 16 16 16 16 16 15 15 15 15 15 15 15 14 14 14 13 13 13 13 13 13 13 13 12
14 14 14 15 15 15 15 16 16 16 16 16 16 16 16 16 16 16 16 16 16 15 15 15 15 15 15 15 15 15 14 14 14 14 13 13 13 13 13 13 13 12 12
14 14 14 14 14 14 15 15 15 15 15 15 16 16 16 16 16 15 15 15 15 15 15 15 15 15 15 15 15 15 14 14 13 13 13 13 13 13 13 13 13 12 12
13 13 13 14 14 14 14 14 14 14 15 15 15 15 15 15 15 15 15 15 15 15 15 15 15 15 15 15 15 14 14 13 13 13 13 13 13 13 13 13 12 12 12
13 13 13 13 13 13 13 13 13 14 14 14 14 14 14 15 15 15 15 15 15 15 15 14 14 14 14 14 14 14 14 13 13 13 13 13 13 13 13 12 12 12 12
12 12 12 12 12 12 12 13 13 13 13 13 13 14 14 14 14 14 14 14 14 14 14 14 14 14 14 14 14 14 13 13 13 13 13 13 13 13 12 12 12 12 12
12 12 11 11 12 12 12 12 12 12 12 13 13 13 13 13 13 13 14 14 14 14 13 13 13 13 14 14 14 13 13 13 13 13 13 13 13 13 12 12 12 12 11
11 11 11 11 11 11 11 12 12 12 12 12 12 12 12 12 13 13 13 13 13 13 13 13 13 13 13 13 13 13 13 13 12 12 13 13 13 12 12 12 12 12 11
11 11 10 11 11 11 11 11 11 11 11 11 11 12 12 12 12 12 12 12 12 12 12 12 12 12 12 12 12 13 12 12 12 12 12 12 12 12 12 12 12 12 11
10 10 10 10 10 10 10 10 11 11 11 11 11 11 11 11 11 11 12 12 12 12 12 12 12 12 12 12 12 12 12 12 12 12 12 12 12 12 12 12 12 12 11
10 10 10 10 10 10 10 10 10 10 10 10 10 10 11 11 11 11 11 11 11 11 11 11 11 11 11 11 11 11 12 12 12 12 12 12 12 12 12 12 12 12 11
10 10 9 9 9 9 9 9 9 10 10 10 10 10 10 10 10 10 11 11 11 11 11 11 11 11 11 11 11 11 11 11 11 11 12 12 12 12 12 12 12 11 11
10 9 9 9 9 9 9 9 9 9 9 9 10 10 10 10 10 10 10 10 10 10 10 10 10 10 10 10 10 10 11 11 11 11 11 11 11 11 11 11 11 11 11
9 9 9 9 9 8 8 8 9 9 9 9 9 9 10 10 10 10 10 10 10 10 10 10 10 10 10 10 10 10 10 10 11 11 11 11 11 11 11 11 11 11 11
9 9 8 8 8 8 8 8 8 8 9 9 9 9 9 9 9 9 10 10 9 9 9 9 9 9 9 9 9 9 9 10 10 10 10 11 11 11 11 11 11 11 11
9 8 8 8 8 8 8 8 8 8 8 8 8 9 9 9 9 9 9 9 9 9 9 9 9 9 9 9 9 8 8 9 9 10 10 10 10 11 10 10 10 10 10
8 8 8 7 7 7 7 7 7 7 8 8 8 8 8 8 9 9 9 9 9 9 8 8 8 8 8 8 9 9 8 8 9 9 10 10 10 10 10 10 10 10 10
8 8 7 7 7 7 7 7 7 7 7 7 7 7 8 8 8 8 8 9 8 8 8 8 8 8 8 8 8 9 9 9 8 8 9 9 9 10 10 10 10 10 10
8 7 7 7 6 6 6 6 6 6 7 7 7 7 7 8 8 8 8 8 8 8 8 8 8 8 8 8 8 8 8 8 9 8 8 9 9 9 9 10 10 10 10
7 7 7 7 6 6 6 6 6 6 6 6 6 6 7 7 7 8 7 7 7 7 7 7 7 7 8 8 8 8 8 8 8 8 8 8 8 9 9 9 9 9 9
Wind_Speed
5 6 9 9 9 8 7 7 6 6 7 6 6 6 7 7 7 7 7 7 8 8 8 9 9 9 9 10 10 11 12 12 12 12 12 12 12 11 11 11 11 11 13
4 7 9 9 9 8 8 8 7 6 6 6 6 6 6 6 6 7 7 7 8 8 8 9 8 9 10 10 11 11 11 11 11 11 11 11 11 10 10 10 11 10 13
5 7 8 9 9 8 7 8 7 6 6 6 6 5 5 5 5 6 7 7 7 7 8 8 9 9 10 10 11 11 10 10 10 10 9 8 9 10 10 11 11 12 12
6 7 7 8 8 8 7 6 6 6 5 5 5 5 4 4 5 6 6 7 7 7 7 8 9 9 10 11 11 10 10 9 9 8 7 6 8 10 10 10 10 11 11
6 7 7 8 7 7 6 5 5 5 4 4 4 4 4 4 4 5 6 6 6 7 7 7 8 9 10 10 10 10 9 9 7 7 6 6 8 11 10 10 10 10 10
5 6 6 6 6 6 5 4 4 4 4 3 2 3 3 3 3 4 5 5 6 6 7 7 8 8 9 10 10 10 9 8 6 6 6 7 8 11 11 11 10 9 9
5 5 5 5 4 4 4 3 3 3 3 2 1 1 2 2 3 4 5 5 6 6 7 7 7 8 9 10 10 10 9 7 6 5 6 7 9 11 11 10 10 9 10
4 4 3 3 3 2 2 2 2 1 1 1 0 1 3 3 4 4 5 6 6 7 7 7 7 8 8 9 10 10 9 7 6 6 6 7 10 11 11 10 9 9 9
4 3 3 2 2 2 1 1 0 0 1 1 1 2 3 4 5 5 6 6 7 7 7 7 7 8 8 9 10 10 9 8 5 6 6 7 10 11 11 10 9 9 9
4 4 4 4 4 3 1 1 1 1 2 2 2 3 4 4 5 5 6 6 8 8 7 7 8 8 8 9 10 11 10 8 6 6 6 8 10 11 11 11 10 9 9
4 3 3 4 4 4 3 3 2 2 3 3 3 3 3 4 4 5 5 6 7 8 8 8 8 8 8 8 10 11 10 7 7 6 7 9 11 11 11 11 11 10 9
4 4 3 3 3 3 3 2 2 2 2 2 3 3 3 4 4 4 5 6 7 8 8 8 8 8 7 6 8 9 7 8 7 6 8 11 12 12 12 12 11 11 10
3 4 3 3 3 3 2 2 1 1 1 2 3 3 3 2 2 2 3 4 4 6 6 6 6 6 6 6 6 7 8 7 6 7 9 12 13 13 13 13 12 11 11
3 3 3 3 3 3 3 2 1 1 1 1 2 4 2 2 2 2 3 4 4 4 4 5 4 5 6 7 7 7 7 5 5 7 9 13 14 14 13 13 13 12 12
3 3 2 2 2 3 3 3 2 2 3 3 3 4 3 3 3 3 3 4 4 4 4 4 4 4 4 5 6 6 5 6 6 7 8 13 14 14 14 14 14 13 13
3 3 3 3 2 2 3 3 3 3 3 3 3 4 5 4 4 4 3 4 4 4 5 5 4 4 4 4 4 5 5 5 6 7 9 10 13 14 15 15 15 14 14
3 3 3 3 2 2 3 4 4 3 4 4 3 4 6 5 5 5 4 4 4 4 5 4 3 3 2 3 4 4 3 4 5 7 9 9 10 13 15 15 15 15 15
3 3 4 4 3 3 3 4 4 4 4 4 4 4 5 6 6 5 4 4 4 4 4 3 3 2 2 3 3 3 3 3 5 6 8 9 10 10 13 16 15 15 15
3 3 4 3 4 4 4 5 5 4 4 4 4 4 5 6 6 5 5 4 5 4 4 4 3 3 3 3 3 3 3 3 4 4 5 8 9 10 11 14 15 15 16
3 3 4 4 4 4 4 4 4 4 4 4 4 4 5 5 6 5 4 5 5 4 4 4 4 3 3 3 3 2 3 4 4 5 6 6 7 10 11 12 12 13 15
3 3 3 4 4 3 3 3 3 4 4 4 4 5 6 6 6 5 5 5 6 5 5 5 3 4 3 2 1 1 3 4 5 5 5 5 6 9 10 11 11 11 11
4 4 4 4 4 4 4 4 4 4 4 4 4 5 6 6 6 6 6 6 6 5 6 6 4 3 3 3 2 1 1 2 4 5 4 5 6 6 7 10 10 11 10
4 4 4 4 5 5 5 4 4 3 3 3 4 4 5 6 6 6 6 6 6 6 6 6 6 5 5 4 4 3 3 3 2 3 5 5 6 6 6 7 9 10 11
4 3 4 4 5 5 5 4 5 5 5 5 4 4 4 5 5 6 6 6 7 6 7 7 6 5 6 5 5 4 4 3 2 2 3 4 6 7 7 7 8 9 11
3 3 4 4 5 5 5 5 5 6 5 4 4 5 4 4 5 5 5 5 6 6 7 7 7 7 5 6 5 4 4 3 4 3 4 4 4 5 6 6 6 7 9
4 4 4 5 5 5 5 5 5 6 6 6 6 5 4 3 3 4 4 5 6 6 7 7 7 7 6 6 5 5 4 4 4 4 5 5 5 4 5 5 6 6 8
Wind_Direction
47 64 62 47 44 54 58 65 81 92 100 106 114 128 140 141 144 145 147 149 149 150 149 146 146 145 139 127 117 110 109 107 103 102 101 102 101 98 94 94 92 90 95
60 65 63 51 48 53 57 61 72 84 94 105 110 121 132 144 150 155 160 160 159 157 155 152 149 147 142 132 126 121 120 118 114 111 107 105 104 102 98 95 96 96 99
63 63 60 50 48 52 57 61 67 78 88 97 106 111 127 143 154 158 161 165 164 164 161 156 150 145 139 135 133 132 133 132 130 126 120 114 112 111 106 101 100 100 100
60 67 59 58 51 50 57 61 66 75 86 95 102 107 122 145 158 164 167 166 168 169 166 162 153 148 144 141 142 143 144 144 146 142 130 125 123 122 116 110 107 106 104
62 65 66 67 56 51 54 58 63 69 80 91 105 115 121 143 160 166 173 173 169 167 163 160 157 153 151 152 154 155 156 156 155 144 124 116 115 126 123 117 114 112 107
49 60 69 71 64 56 52 56 62 65 71 85 105 125 134 143 159 164 169 168 168 163 159 155 157 159 159 160 162 167 169 168 164 151 139 127 120 129 127 123 120 119 114
34 54 62 56 72 67 55 53 63 73 75 78 105 151 169 167 163 166 166 165 166 165 158 157 160 166 166 168 172 177 179 185 172 149 129 127 130 136 134 131 128 126 123
23 43 73 49 54 85 76 58 53 78 70 68 112 206 200 194 186 175 172 173 170 167 164 165 169 174 172 174 179 183 189 191 173 154 136 133 140 143 143 141 138 136 131
12 21 41 35 29 50 114 114 66 305 226 263 269 241 210 207 205 195 185 180 179 174 171 174 176 179 181 183 187 191 199 202 184 160 151 142 149 154 153 149 146 145 141
11 16 19 17 9 1 6 262 231 247 243 243 246 243 220 210 209 200 191 191 186 178 178 182 184 185 186 190 195 199 204 206 192 164 149 153 158 165 162 158 157 156 152
6 17 16 6 360 357 341 318 282 253 244 236 228 225 218 209 206 203 198 194 187 182 183 186 189 187 185 191 200 204 205 203 185 163 156 166 170 175 173 169 168 168 164
355 3 6 351 345 345 335 338 310 265 248 232 219 203 211 211 212 210 196 191 192 186 181 184 190 188 184 181 198 205 211 206 182 157 166 174 180 182 182 179 176 176 175
352 350 349 340 337 329 312 307 308 281 243 239 226 211 216 194 187 172 169 177 183 179 173 176 177 185 187 181 191 203 213 206 179 161 172 179 185 189 189 188 183 184 183
339 320 334 337 323 320 307 291 291 283 256 250 230 222 206 196 207 193 190 184 185 184 173 174 193 203 194 187 194 204 211 195 173 162 174 180 186 193 195 194 192 191 190
312 307 311 306 300 303 287 272 274 259 260 242 225 219 203 204 208 203 205 190 191 184 179 196 205 200 197 196 200 206 206 196 184 171 173 182 187 194 199 200 198 197 197
309 305 294 294 278 286 287 269 258 261 261 246 228 219 208 204 205 204 209 201 196 182 191 201 208 208 202 195 208 203 201 200 190 173 171 180 188 193 202 206 205 205 203
299 308 297 296 286 282 288 274 268 261 259 251 238 225 215 209 204 208 202 198 196 188 200 209 214 205 205 206 210 211 206 205 199 183 178 180 187 196 203 207 209 210 208
304 308 296 298 296 283 280 270 259 254 255 247 230 225 224 216 205 205 197 198 197 189 190 205 203 202 209 208 210 214 214 211 217 200 186 184 186 193 203 211 212 212 211
305 307 291 285 286 282 276 264 255 252 249 247 232 221 227 225 213 204 196 198 185 188 189 205 202 195 204 217 216 212 213 214 225 218 205 194 189 190 194 206 211 214 214
294 296 291 277 274 283 276 270 260 255 251 247 236 227 226 224 215 204 197 196 182 186 192 196 200 203 200 208 237 237 232 224 223 224 219 203 192 193 196 201 205 213 216
297 299 300 288 282 286 279 266 257 250 246 244 232 230 229 224 212 202 202 195 188 192 196 196 198 195 201 191 208 267 273 241 229 225 219 207 202 198 197 200 201 203 211
289 287 297 297 288 282 278 268 252 255 250 241 236 231 224 220 215 211 198 198 192 191 196 198 192 197 209 187 183 190 253 266 247 233 223 214 209 198 201 203 203 202 202
293 284 295 294 289 284 282 282 275 276 272 261 248 237 225 220 212 210 206 203 196 194 197 200 200 200 203 208 198 195 206 227 262 247 227 221 212 209 207 204 207 206 202
294 291 286 289 286 291 282 275 267 262 259 258 248 242 232 225 217 212 206 205 202 200 198 203 207 199 198 209 219 224 224 217 221 252 246 226 218 216 212 210 210 208 204
308 303 290 287 284 287 282 274 270 269 263 261 257 251 241 230 222 215 209 202 208 208 202 205 207 205 204 211 219 226 233 241 230 229 249 241 238 230 219 211 207 206 205
309 299 288 281 287 285 275 269 264 268 265 264 260 247 236 225 222 214 212 210 211 216 211 206 209 209 210 215 222 224 219 220 226 229 238 233 239 244 234 222 212 208 205
Height
1493 1492 1491 1492 1492 1493 1494 1495 1496 1497 1499 1500 1501 1502 1503 1504 1506 1506 1507 1508 1509 1510 1510 1511 1512 1513 1514 1515 1516 1517 1517 1518 1518 1518 1519 1519 1520 1520 1520 1521 1521 1521 1522
1492 1492 1491 1492 1492 1493 1494 1495 1496 1497 1498 1500 1501 1502 1503 1504 1505 1506 1507 1508 1509 1509 1510 1511 1512 1513 1514 1515 1516 1517 1517 1518 1519 1519 1519 1520 1520 1521 1521 1521 1521 1522 1522
1491 1491 1491 1491 1492 1493 1494 1495 1495 1497 1498 1499 1500 1501 1502 1503 1504 1505 1506 1507 1508 1509 1510 1511 1512 1513 1514 1515 1516 1517 1517 1518 1519 1519 1520 1520 1521 1521 1521 1522 1522 1523 1523
1491 1491 1491 1491 1491 1492 1493 1494 1495 1496 1497 1498 1499 1500 1501 1502 1503 1504 1505 1506 1507 1508 1510 1510 1511 1513 1513 1514 1515 1516 1517 1518 1519 1520 1520 1520 1521 1521 1522 1522 1523 1523 1523
1491 1490 1490 1490 1491 1491 1492 1493 1494 1495 1496 1497 1498 1499 1500 1501 1502 1503 1504 1505 1506 1508 1509 1510 1511 1512 1513 1514 1515 1516 1517 1518 1519 1520 1520 1521 1521 1522 1522 1522 1523 1523 1523
1490 1490 1490 1490 1490 1490 1491 1492 1492 1493 1494 1495 1497 1498 1499 1500 1501 1502 1503 1504 1505 1506 1507 1508 1510 1511 1512 1513 1514 1515 1516 1518 1519 1519 1520 1520 1521 1521 1522 1522 1522 1523 1523
1489 1489 1489 1489 1489 1489 1489 1490 1491 1492 1493 1493 1495 1496 1497 1498 1499 1500 1501 1502 1503 1505 1506 1507 1508 1509 1510 1511 1512 1514 1515 1516 1518 1518 1519 1520 1520 1521 1521 1522 1522 1523 1523
1488 1488 1487 1487 1487 1487 1488 1488 1489 1489 1490 1491 1492 1493 1494 1496 1497 1498 1499 1500 1501 1503 1504 1505 1506 1507 1508 1509 1511 1512 1514 1515 1516 1517 1518 1519 1519 1520 1521 1521 1522 1522 1522
1487 1487 1486 1486 1485 1485 1485 1485 1486 1487 1487 1488 1489 1490 1491 1493 1494 1495 1496 1498 1499 1500 1502 1503 1504 1505 1506 1508 1509 1510 1512 1513 1515 1516 1517 1517 1518 1519 1519 1520 1521 1521 1522
1485 1485 1484 1483 1483 1483 1483 1483 1483 1484 1484 1485 1486 1487 1488 1489 1491 1492 1493 1495 1496 1497 1499 1500 1501 1503 1504 1505 1507 1508 1510 1511 1513 1514 1515 1516 1517 1518 1518 1519 1519 1520 1521
1483 1483 1482 1481 1480 1480 1480 1480 1480 1481 1481 1482 1483 1484 1485 1486 1487 1489 1490 1491 1493 1494 1496 1497 1498 1500 1501 1503 1504 1506 1507 1509 1510 1511 1512 1514 1515 1516 1517 1517 1518 1519 1519
1481 1480 1479 1479 1478 1477 1477 1477 1477 1478 1478 1479 1480 1480 1481 1482 1483 1485 1486 1488 1490 1491 1492 1494 1495 1497 1498 1500 1501 1503 1505 1506 1508 1509 1510 1511 1513 1514 1514 1515 1516 1517 1518
1479 1478 1477 1476 1475 1475 1474 1474 1474 1474 1475 1476 1476 1477 1477 1479 1480 1481 1482 1484 1486 1487 1489 1490 1492 1493 1495 1496 1498 1500 1502 1503 1505 1506 1507 1509 1510 1511 1512 1513 1514 1515 1516
1476 1475 1474 1473 1472 1472 1471 1471 1471 1471 1471 1472 1473 1473 1474 1474 1476 1477 1478 1480 1482 1483 1485 1486 1488 1489 1491 1493 1495 1497 1498 1500 1501 1502 1504 1505 1507 1508 1509 1510 1511 1512 1513
1474 1473 1472 1470 1469 1468 1468 1468 1467 1467 1468 1468 1469 1470 1470 1470 1472 1473 1475 1476 1478 1479 1481 1482 1484 1486 1488 1490 1492 1493 1495 1496 1498 1499 1500 1502 1504 1505 1506 1507 1508 1509 1510
1471 1470 1469 1467 1466 1465 1464 1464 1464 1464 1464 1464 1465 1465 1466 1467 1468 1469 1470 1472 1474 1476 1477 1479 1481 1483 1484 1486 1488 1490 1491 1493 1494 1495 1497 1498 1500 1501 1503 1504 1505 1506 1507
1468 1467 1465 1464 1462 1461 1461 1460 1460 1459 1460 1460 1460 1461 1462 1462 1463 1465 1466 1468 1470 1472 1474 1476 1478 1479 1481 1483 1484 1486 1488 1489 1491 1492 1493 1494 1495 1497 1498 1500 1501 1502 1503
1465 1463 1462 1460 1459 1457 1456 1456 1455 1455 1455 1455 1456 1456 1457 1458 1459 1460 1461 1463 1465 1468 1470 1472 1473 1475 1476 1478 1480 1482 1483 1485 1486 1487 1488 1490 1491 1492 1494 1495 1497 1498 1499
1461 1460 1458 1456 1454 1453 1452 1451 1450 1450 1450 1450 1451 1452 1453 1453 1454 1456 1457 1459 1461 1463 1465 1467 1469 1471 1473 1474 1476 1477 1479 1480 1482 1483 1484 1485 1486 1487 1489 1491 1492 1493 1495
1457 1456 1454 1452 1450 1449 1447 1446 1446 1445 1445 1445 1446 1447 1448 1449 1450 1452 1453 1455 1456 1459 1460 1463 1465 1468 1469 1471 1472 1473 1474 1476 1477 1478 1479 1480 1482 1483 1484 1486 1487 1488 1490
1453 1451 1450 1447 1446 1444 1443 1442 1441 1440 1440 1440 1441 1442 1443 1444 1446 1447 1448 1450 1452 1454 1456 1458 1461 1463 1465 1467 1468 1469 1470 1471 1472 1473 1475 1476 1477 1478 1480 1481 1482 1483 1485
1448 1447 1445 1443 1441 1440 1439 1438 1437 1435 1435 1436 1436 1437 1439 1440 1441 1442 1444 1446 1447 1450 1452 1454 1456 1458 1461 1463 1464 1465 1466 1467 1467 1468 1470 1471 1472 1473 1474 1476 1477 1478 1480
1444 1442 1440 1438 1437 1435 1434 1433 1432 1431 1430 1431 1431 1432 1434 1435 1437 1438 1439 1441 1443 1445 1447 1449 1452 1454 1456 1458 1460 1462 1463 1462 1462 1463 1464 1466 1467 1468 1469 1470 1472 1473 1474
1440 1438 1436 1434 1432 1430 1429 1428 1427 1426 1425 1425 1427 1428 1429 1431 1432 1433 1434 1436 1438 1440 1442 1445 1447 1449 1451 1452 1455 1457 1459 1459 1459 1458 1459 1460 1462 1462 1463 1464 1466 1467 1468
1437 1434 1432 1430 1428 1426 1424 1423 1422 1421 1421 1422 1422 1422 1423 1425 1427 1428 1429 1431 1434 1435 1437 1440 1442 1444 1446 1448 1449 1451 1454 1455 1455 1455 1453 1454 1456 1457 1458 1459 1460 1461 1463
1433 1431 1428 1426 1423 1422 1420 1419 1418 1417 1416 1416 1417 1417 1418 1420 1421 1423 1425 1427 1429 1430 1432 1435 1437 1439 1441 1444 1445 1447 1448 1449 1450 1451 1450 1450 1451 1451 1453 1453 1454 1455 1457